User: anonymous
Location: Meetinghouse Hill
(42.7686°N, 71.7752°W)
Time: 13:28:19
(UTC-04:00)
Language:

Iridium 34 - Orbit

View from above orbital plane
View from above orbital plane
View from above satellite
View from above satellite

Ground track
Ground track

The orbit data is extracted from the following two-line orbital elements,

1 24969U 97056E   14110.43661610  .00000545  00000-0  18743-3 0  7517
2 24969 086.3954 081.0638 0002222 101.1573 258.9873 14.34214533867169
Epoch (UTC): 20 April 2014 10:28:43
Eccentricity: 0.0002222
inclination: 86.3954°
perigee height: 776 km
apogee height: 779 km
right ascension of ascending node: 81.0638°
argument of perigee: 101.1573°
revolutions per day: 14.34214533
mean anomaly at epoch: 258.9873°
orbit number at epoch: 86716

The dashed part of the orbit path shows where the satellite is in the earth's shadow,  

DLR